Погода в Лёррахе

Германия     47°36′39″N   7°39′48″E
темп.,
°C
ветер,
м/с
пор.,
м/с
влажн.,
%
обл.,
%
осадки,
мм/ч
давл.,
гПа
погр.,
м
8 марта, пн
пн801:00+1з119453 0.0 102122
04:000з01958 0.1 102022
07:00−2з119714 0.1 102022
10:00+5ссз11713 0.0 1021372
13:00+8с235812 0.0 10191102
16:00+8сз226160 0.0 1018815
19:00+1зсз128755 0.0 101922
22:000ююв018979 0.0 102022
9 марта, вт
вт901:00−2вюв118539 0.0 102021
04:00−2ю00820 0.0 101921
07:00−2юв117750 0.0 102021
10:00+5ссв0053100 0.0 1020401
13:00+7сз3352100 0.0 1019818
16:00+6сз3455100 0.0 1018734
19:00+1зсз117972 0.0 102022
22:00−1ююз01802 0.0 102322
10 марта, ср
ср1001:00−1ююз00841 0.0 102221
04:00−2юз00870 0.0 102321
07:00−2ю11900 0.0 102421
10:00+7в11570 0.0 1024524
13:00+9сз22490 0.0 10231078
16:00+9ссз22500 0.0 1021908
19:00+2вюв01784 0.0 102222
22:00+1ююв12829 0.0 102322
11 марта, чт
чт1101:00+1юв227838 0.0 102151
04:00+2юв2279100 0.0 101972
07:00+3ююв1276100 0.0 101856
10:00+5ююв1376100 0.2 1017137
13:00+13юз41250100 0.2 10151189
16:00+13юз41357100 0.0 10131599
19:00+10юз41673100 0.1 10141326
22:00+8з71678100 2.6 10171459
12 марта, пт
пт1201:00+5зюз3128899 2.8 10191054
04:00+4з2118990 0.3 1019513
07:00+2зюз129394 0.4 102025
10:00+7з5107122 0.1 10191397
13:00+10з6104811 0.1 10181919
16:00+10з594930 0.0 10161927
19:00+5з237316 0.0 101784
22:00+3ююз228133 0.0 101746